Wind_Speed
7 8 8 9 12 13 14 15 15 16 19 20 22 23 24 25 25 25 26 26 25 26 25 27 26 23 20 20 20 20 21 21 21 21 21 22 22 24 25 25 25 24 25 26
6 6 9 11 13 15 17 16 17 20 21 21 21 23 25 26 25 27 26 25 25 25 25 25 23 23 21 21 22 22 22 23 23 23 23 24 25 26 27 27 26 27 28 29
8 8 10 12 14 15 16 15 15 18 20 22 22 23 25 26 27 27 28 28 28 27 26 25 22 22 22 23 23 23 23 24 24 25 26 26 27 28 29 29 30 30 32 32
8 11 11 12 13 14 16 16 17 18 17 17 19 21 24 25 27 27 28 27 26 26 26 25 25 25 25 26 26 25 25 25 26 27 28 28 29 30 31 32 33 34 34 35
8 10 11 11 12 14 15 16 17 17 17 17 18 20 23 26 28 28 28 27 27 28 27 28 27 27 28 28 29 28 28 30 30 30 31 31 31 33 33 34 35 35 36 36
9 10 11 11 11 12 14 14 16 15 15 18 18 20 24 27 29 29 29 27 26 26 26 27 27 27 28 30 31 31 32 33 33 34 34 33 34 35 35 36 36 36 36 36
7 10 11 10 10 11 13 13 11 12 14 16 17 22 27 30 29 29 28 27 26 27 28 26 26 28 29 30 31 32 34 35 36 36 36 36 37 37 37 38 38 37 37 37
7 7 9 9 8 9 10 12 12 13 14 15 18 24 30 31 30 29 27 27 25 27 28 28 29 30 30 31 32 34 34 35 36 37 37 38 38 39 39 39 39 39 39 40
6 5 6 7 7 8 9 13 15 17 16 15 18 26 28 28 30 29 27 28 28 28 29 29 30 31 32 33 33 34 34 36 37 37 38 40 40 41 41 42 41 42 42 42
5 4 4 4 5 7 9 11 13 16 15 15 17 22 26 28 28 28 28 29 29 28 29 30 31 32 33 33 34 34 34 35 36 37 38 39 40 41 41 42 42 43 43 43
6 4 3 5 6 8 9 11 13 15 16 16 17 22 23 23 27 28 26 25 26 27 29 30 32 33 33 34 34 35 36 36 37 37 38 38 39 41 42 42 42 43 43 43
5 4 5 6 7 7 8 11 13 15 16 18 20 24 24 21 23 26 26 27 27 27 28 29 31 32 33 34 34 35 36 36 36 37 37 38 39 39 40 41 41 42 43 43
4 4 5 6 7 8 10 12 14 15 17 17 18 25 26 24 23 24 25 25 26 27 28 29 30 31 32 33 34 34 35 36 37 37 37 38 39 39 40 41 42 42 42 43
5 4 4 4 6 7 9 12 12 14 18 19 21 25 26 26 28 27 25 26 26 27 27 28 29 30 31 32 33 33 34 35 36 37 38 39 39 40 40 41 41 42 42 42
6 5 5 5 5 5 7 9 11 15 18 21 23 25 26 26 27 27 27 26 25 25 26 27 29 30 30 31 32 32 33 34 35 36 37 38 38 38 38 38 39 40 40 40
6 7 6 5 6 7 8 10 12 15 18 21 24 25 26 27 27 26 25 25 24 25 26 26 27 28 29 29 30 31 32 33 34 34 35 36 36 36 36 36 36 36 36 36
6 7 8 7 7 9 10 13 14 17 19 21 23 25 25 25 26 26 25 25 25 25 25 26 27 27 28 29 29 29 30 31 32 32 32 33 33 33 33 32 32 33 33 33
7 8 8 8 8 10 12 13 16 18 18 19 21 23 25 25 25 24 24 23 24 24 24 24 23 23 25 26 26 27 27 28 29 29 29 29 29 29 28 28 29 29 30 29
8 8 8 8 9 12 14 15 16 18 18 18 20 22 23 23 23 22 22 22 23 22 22 23 23 24 24 24 24 25 25 25 25 26 26 26 24 24 24 24 26 26 26 27
8 8 9 10 10 13 15 17 18 18 18 18 20 20 20 21 20 20 20 20 20 19 19 19 20 20 21 21 22 21 22 22 22 22 22 22 21 22 23 24 24 24 25 26
8 9 10 11 13 14 16 18 18 19 19 19 19 18 17 18 18 18 18 18 17 17 17 17 18 18 19 19 19 19 19 19 19 19 20 20 20 20 21 22 22 23 23 23
9 10 12 13 14 16 18 18 18 19 19 18 18 17 17 17 17 17 17 16 15 15 16 16 16 16 16 16 17 17 18 18 18 18 18 18 19 19 20 21 21 21 21 21
9 11 13 14 15 16 18 18 19 18 18 17 17 17 17 16 16 15 14 13 13 12 13 13 13 14 14 14 15 16 16 16 17 17 18 18 18 19 19 19 19 19 19 19
9 11 13 14 15 16 18 19 19 19 18 17 17 17 16 15 14 13 13 12 11 12 11 11 12 13 13 14 14 15 16 16 16 16 16 17 17 17 17 17 17 17 17 18
10 12 13 15 16 17 18 19 19 19 18 17 17 16 16 14 13 13 12 12 11 11 11 12 12 12 13 14 13 14 14 14 13 13 14 14 15 15 15 15 15 15 15 15
10 12 14 16 17 18 19 19 19 19 18 18 17 16 15 14 13 12 12 11 11 11 11 12 12 12 12 12 12 12 12 11 11 11 12 13 13 13 13 13 13 13 13 13
Wind_Direction
266 250 241 234 229 215 214 218 219 218 228 232 231 224 227 235 234 234 236 238 242 240 243 241 240 242 244 247 250 255 258 261 265 268 271 274 276 280 283 282 280 281 284 286
279 264 245 233 227 225 213 213 215 216 224 227 230 227 225 235 237 234 235 237 239 239 238 241 239 240 249 248 250 255 260 263 265 267 270 274 276 279 282 285 283 281 283 286
263 251 253 244 236 227 215 211 217 224 231 235 233 235 231 235 241 244 244 244 239 239 240 242 246 249 253 254 253 254 260 264 266 269 270 273 276 279 280 281 282 281 283 285
255 251 251 250 239 227 221 215 218 225 230 240 239 241 244 243 244 246 246 244 241 241 244 246 250 250 254 255 256 259 264 265 268 272 274 275 277 279 278 280 282 282 285 285
254 256 253 247 238 227 222 225 227 231 229 228 231 238 246 250 247 248 248 248 250 249 252 251 250 250 253 256 258 261 263 266 269 272 274 275 276 278 278 282 282 283 287 289
252 256 252 247 240 234 224 226 231 237 237 236 231 235 246 252 248 250 253 251 252 252 255 254 252 255 258 258 258 261 263 265 266 269 272 273 274 276 278 281 282 284 287 289
273 268 260 252 241 236 224 221 230 239 240 241 233 234 244 248 250 252 252 250 253 255 257 257 257 260 260 260 262 264 264 264 266 268 271 273 274 277 280 280 282 285 286 289
260 248 254 256 240 236 229 212 214 231 240 243 235 234 244 248 251 256 257 258 260 257 257 258 259 261 261 262 264 265 266 267 267 268 269 270 273 276 278 281 283 285 287 289
255 238 243 247 235 228 228 217 216 233 240 239 236 240 248 251 255 260 261 261 262 259 258 258 258 260 261 262 264 266 267 267 268 268 269 271 273 275 279 281 283 284 286 289
303 279 243 246 238 239 231 223 228 241 248 251 251 245 247 251 254 258 259 257 259 259 258 258 258 260 261 262 264 265 267 268 269 269 270 272 274 276 277 280 281 283 284 287
285 280 235 219 230 239 239 235 236 239 246 254 261 260 259 254 256 258 261 261 266 263 261 260 259 260 260 261 263 265 266 267 268 269 271 273 275 276 277 279 281 282 284 285
259 252 227 231 232 233 239 248 250 248 245 251 258 269 269 266 265 264 264 264 266 265 263 263 263 262 261 262 263 265 266 268 269 271 272 274 276 277 278 280 282 282 283 283
273 252 228 230 234 237 244 249 252 252 255 258 260 269 270 275 277 274 272 271 269 267 264 264 264 264 263 263 265 266 267 269 270 272 274 275 277 278 279 281 282 282 283 283
306 289 273 258 242 252 246 249 254 257 259 259 262 269 275 280 280 280 280 275 270 268 266 265 265 265 265 265 266 268 269 271 272 273 274 276 278 279 280 280 281 282 283 284
327 334 333 319 306 299 267 264 263 265 266 267 266 271 275 279 282 282 281 278 271 268 268 267 267 267 267 268 269 271 271 272 273 274 274 277 279 279 280 280 281 281 282 284
338 340 340 332 317 306 300 287 282 279 276 275 274 275 276 276 282 285 283 280 278 275 273 271 269 269 269 270 270 271 272 274 275 276 276 277 278 279 280 280 280 281 283 285
337 336 335 338 332 312 303 299 297 291 286 282 281 281 285 285 285 286 286 285 283 280 278 273 271 271 270 270 271 272 275 276 277 277 277 277 277 279 279 280 282 284 286 286
339 339 338 336 327 309 308 306 304 300 296 291 288 290 290 289 289 288 289 288 284 282 281 280 276 274 274 274 276 278 277 277 278 277 276 277 278 279 281 283 285 286 287 287
342 340 343 340 321 310 316 314 312 308 305 300 297 297 295 293 291 289 288 290 288 286 281 279 277 275 273 274 277 280 279 279 278 277 276 278 281 283 284 287 289 291 292 294
341 341 342 338 325 316 321 322 319 314 310 309 306 303 300 298 296 295 294 293 290 287 284 281 277 274 275 277 280 282 281 280 279 279 280 283 284 286 289 290 291 292 294 296
338 339 339 336 330 328 328 327 324 319 315 312 311 310 304 302 303 302 299 295 292 289 286 284 284 281 281 283 285 286 286 285 285 285 285 286 287 288 290 292 293 294 296 298
336 336 335 335 334 333 330 329 326 322 320 316 314 313 310 307 306 304 303 299 295 290 289 288 288 287 286 285 285 285 286 287 288 287 287 289 291 292 293 294 296 297 299 301
331 333 335 336 335 333 333 333 331 329 326 324 322 318 315 311 310 310 311 308 305 301 296 293 292 291 291 291 290 290 292 292 291 290 288 290 293 295 296 298 300 301 303 304
329 333 336 338 338 337 337 337 337 336 333 330 328 327 324 321 319 318 318 315 310 308 303 299 296 295 295 295 295 296 296 295 294 293 292 294 297 300 301 303 305 306 307 307
329 334 338 341 342 341 341 341 341 341 339 338 337 335 333 331 327 323 321 319 315 313 314 312 309 307 307 305 305 306 305 303 299 297 299 301 301 302 305 307 309 310 311 312
328 335 339 342 344 344 344 343 344 344 343 342 341 341 341 340 337 335 331 326 323 320 319 317 316 316 315 312 311 310 309 308 307 306 306 306 307 308 309 311 314 316 318 319
Height
5795 5797 5799 5801 5804 5807 5809 5813 5818 5820 5821 5822 5824 5826 5829 5830 5832 5833 5833 5835 5837 5837 5837 5837 5838 5839 5842 5846 5849 5851 5853 5855 5856 5857 5858 5859 5860 5860 5860 5861 5861 5860 5860 5860
5795 5796 5797 5798 5801 5803 5805 5809 5813 5815 5816 5818 5820 5822 5824 5824 5825 5826 5827 5828 5830 5832 5833 5833 5834 5837 5839 5841 5843 5846 5848 5850 5851 5852 5853 5854 5855 5855 5855 5854 5855 5855 5854 5854
5794 5795 5794 5796 5798 5800 5802 5806 5809 5811 5813 5814 5817 5818 5819 5819 5820 5822 5824 5824 5824 5827 5827 5829 5830 5833 5836 5838 5839 5839 5842 5844 5846 5847 5848 5849 5849 5849 5849 5849 5849 5849 5848 5847
5791 5792 5792 5793 5795 5796 5799 5802 5804 5806 5809 5811 5814 5814 5815 5815 5815 5817 5817 5818 5820 5821 5822 5824 5827 5829 5831 5834 5835 5835 5837 5839 5840 5841 5842 5843 5843 5843 5843 5842 5842 5842 5841 5841
5789 5789 5789 5790 5792 5793 5796 5798 5800 5802 5804 5807 5810 5812 5812 5811 5810 5811 5812 5814 5815 5817 5819 5820 5822 5824 5825 5827 5829 5830 5831 5833 5834 5835 5836 5837 5836 5836 5835 5835 5833 5833 5833 5833
5785 5786 5786 5787 5789 5790 5793 5795 5797 5799 5801 5803 5806 5808 5807 5805 5805 5805 5807 5809 5810 5811 5813 5814 5816 5819 5820 5821 5822 5824 5825 5827 5828 5829 5829 5829 5829 5828 5828 5827 5827 5826 5826 5825
5783 5783 5783 5784 5786 5788 5790 5793 5795 5797 5799 5801 5803 5804 5801 5799 5799 5800 5802 5804 5805 5806 5808 5810 5811 5813 5815 5816 5816 5817 5818 5819 5820 5821 5822 5822 5821 5820 5820 5820 5819 5819 5818 5817
5780 5781 5781 5782 5783 5785 5787 5790 5794 5795 5796 5798 5799 5798 5795 5794 5794 5794 5797 5798 5800 5802 5803 5805 5806 5807 5808 5810 5810 5811 5811 5812 5813 5814 5814 5814 5814 5814 5813 5812 5811 5811 5810 5808
5778 5779 5780 5780 5781 5783 5785 5787 5789 5790 5790 5792 5793 5791 5790 5788 5789 5789 5791 5793 5794 5795 5797 5798 5799 5800 5801 5802 5803 5803 5804 5805 5805 5806 5806 5806 5806 5805 5804 5804 5803 5802 5801 5799
5776 5778 5778 5779 5781 5782 5783 5785 5787 5788 5787 5788 5788 5785 5785 5784 5784 5784 5784 5786 5787 5789 5790 5791 5791 5792 5793 5794 5795 5795 5796 5796 5797 5797 5797 5797 5797 5796 5795 5795 5793 5792 5791 5789
5777 5777 5778 5778 5779 5781 5782 5783 5783 5784 5784 5785 5783 5782 5777 5778 5779 5778 5778 5779 5781 5782 5783 5783 5784 5785 5785 5786 5787 5787 5787 5788 5788 5788 5788 5788 5787 5786 5786 5785 5784 5782 5781 5780
5776 5776 5775 5776 5777 5778 5779 5780 5781 5781 5780 5780 5780 5779 5772 5771 5772 5772 5772 5774 5775 5775 5776 5776 5776 5777 5778 5778 5779 5779 5779 5779 5779 5779 5779 5778 5778 5777 5776 5775 5773 5772 5771 5770
5775 5775 5775 5775 5777 5776 5777 5777 5777 5777 5777 5775 5775 5775 5769 5768 5767 5766 5766 5767 5768 5769 5769 5769 5769 5769 5770 5770 5770 5770 5770 5770 5770 5770 5769 5769 5768 5767 5766 5765 5763 5762 5761 5759
5774 5774 5773 5774 5773 5773 5773 5774 5774 5774 5773 5771 5770 5768 5766 5765 5763 5762 5761 5761 5762 5762 5762 5762 5761 5762 5762 5762 5762 5761 5761 5761 5761 5760 5760 5759 5758 5757 5756 5755 5753 5752 5751 5749
5774 5773 5772 5772 5771 5771 5771 5771 5771 5770 5769 5767 5766 5764 5762 5760 5757 5756 5755 5755 5755 5755 5755 5755 5754 5754 5753 5753 5753 5753 5752 5752 5752 5751 5750 5749 5749 5748 5747 5745 5744 5742 5741 5739
5774 5773 5772 5771 5770 5770 5769 5768 5768 5766 5765 5763 5761 5760 5757 5754 5752 5751 5750 5749 5749 5748 5748 5747 5747 5746 5746 5745 5745 5744 5744 5743 5743 5742 5741 5740 5739 5738 5737 5736 5734 5733 5731 5730
5773 5772 5771 5770 5769 5768 5768 5766 5765 5762 5760 5759 5756 5755 5752 5749 5748 5746 5745 5744 5743 5742 5741 5740 5740 5739 5739 5738 5737 5737 5736 5735 5734 5733 5732 5731 5730 5730 5728 5727 5726 5724 5723 5721
5773 5772 5770 5769 5769 5767 5768 5763 5762 5759 5756 5754 5751 5749 5746 5745 5743 5741 5739 5738 5737 5736 5735 5734 5733 5733 5732 5731 5730 5729 5728 5727 5726 5725 5724 5723 5722 5721 5720 5719 5718 5716 5714 5712
5772 5771 5769 5768 5767 5765 5763 5761 5758 5755 5752 5750 5747 5744 5742 5739 5737 5736 5734 5732 5731 5729 5728 5728 5727 5726 5725 5724 5723 5722 5721 5720 5719 5718 5717 5716 5715 5714 5713 5712 5710 5708 5707 5705
5772 5770 5769 5767 5765 5763 5762 5758 5755 5753 5749 5746 5743 5740 5737 5735 5733 5731 5729 5727 5726 5724 5723 5722 5721 5720 5719 5718 5717 5716 5714 5714 5713 5712 5711 5710 5709 5708 5707 5705 5703 5702 5700 5698
5771 5769 5768 5766 5763 5761 5759 5755 5753 5750 5747 5743 5739 5736 5732 5730 5729 5727 5724 5722 5721 5720 5718 5717 5716 5715 5713 5712 5711 5710 5709 5708 5707 5706 5705 5704 5703 5702 5700 5699 5697 5695 5693 5691
5770 5769 5767 5764 5762 5761 5756 5753 5750 5747 5742 5739 5736 5733 5730 5727 5725 5722 5720 5718 5716 5715 5714 5712 5711 5710 5709 5707 5706 5705 5704 5702 5701 5700 5699 5699 5698 5696 5695 5693 5691 5689 5687 5685
5769 5768 5765 5764 5762 5758 5754 5751 5747 5743 5740 5736 5733 5730 5727 5724 5721 5719 5717 5715 5713 5711 5710 5709 5707 5706 5705 5703 5702 5701 5699 5698 5697 5696 5695 5694 5693 5691 5689 5688 5686 5684 5682 5680
5768 5766 5764 5762 5759 5756 5752 5749 5745 5741 5737 5734 5731 5727 5724 5721 5719 5716 5714 5712 5710 5709 5707 5705 5704 5703 5701 5700 5698 5697 5695 5694 5692 5691 5690 5689 5688 5686 5684 5682 5681 5679 5677 5675
5767 5765 5763 5760 5757 5754 5751 5747 5743 5739 5735 5732 5728 5725 5722 5719 5716 5714 5712 5710 5708 5707 5705 5703 5701 5699 5698 5696 5695 5693 5691 5690 5689 5687 5686 5685 5683 5682 5680 5678 5676 5675 5673 5671
5766 5764 5762 5759 5756 5753 5749 5745 5742 5738 5734 5730 5727 5724 5721 5718 5715 5712 5710 5708 5706 5704 5702 5701 5699 5697 5695 5693 5692 5690 5688 5687 5686 5684 5683 5682 5680 5679 5677 5675 5673 5671 5670 5668